TimeHST,TemperatureF,Dew PointF,Humidity,Sea Level PressureIn,VisibilityMPH,Wind Direction,Wind SpeedMPH,Gust SpeedMPH,PrecipitationIn,Events,Conditions,WindDirDegrees,DateUTC
12:54 AM,69.1,60.1,73,30.06,10.0,NE,12.7,-,N/A,,Clear,50,2012-12-21 10:54:00
1:01 AM,69.8,59.0,68,30.04,10.0,NE,12.7,20.7,N/A,,Partly Cloudy,50,2012-12-21 11:01:00
1:54 AM,69.1,57.9,68,30.04,10.0,NE,17.3,21.9,N/A,,Clear,40,2012-12-21 11:54:00
2:54 AM,70.0,57.9,65,30.03,10.0,ENE,13.8,23.0,N/A,,Clear,60,2012-12-21 12:54:00
3:54 AM,69.1,59.0,70,30.02,10.0,NE,15.0,-,N/A,,Clear,40,2012-12-21 13:54:00
5:54 AM,69.1,57.9,68,30.02,10.0,NE,16.1,26.5,N/A,,Clear,50,2012-12-21 15:54:00
6:54 AM,69.1,59.0,70,30.04,10.0,NE,13.8,-,N/A,,Clear,40,2012-12-21 16:54:00
7:54 AM,71.1,57.0,61,30.05,10.0,NE,12.7,-,N/A,,Partly Cloudy,50,2012-12-21 17:54:00
8:54 AM,73.9,60.1,62,30.08,10.0,ENE,20.7,27.6,N/A,,Scattered Clouds,60,2012-12-21 18:54:00
9:54 AM,77.0,59.0,54,30.06,10.0,ENE,17.3,26.5,N/A,,Scattered Clouds,70,2012-12-21 19:54:00
10:54 AM,78.1,60.1,54,30.06,10.0,ENE,24.2,31.1,N/A,,Partly Cloudy,60,2012-12-21 20:54:00
11:54 AM,78.1,60.1,54,30.04,10.0,East,21.9,29.9,N/A,,Scattered Clouds,80,2012-12-21 21:54:00
12:54 PM,78.1,60.1,54,30.00,10.0,ENE,25.3,40.3,N/A,,Scattered Clouds,70,2012-12-21 22:54:00
1:54 PM,79.0,57.9,48,29.98,10.0,East,21.9,35.7,N/A,,Scattered Clouds,80,2012-12-21 23:54:00
2:54 PM,77.0,60.1,56,29.98,10.0,NE,24.2,31.1,N/A,,Scattered Clouds,50,2012-12-22 00:54:00
3:54 PM,75.0,62.1,64,29.98,10.0,ENE,19.6,32.2,N/A,,Scattered Clouds,60,2012-12-22 01:54:00
4:54 PM,73.0,62.1,68,29.99,10.0,ENE,25.3,35.7,N/A,,Scattered Clouds,70,2012-12-22 02:54:00
5:54 PM,71.1,62.1,73,30.02,10.0,ENE,20.7,29.9,N/A,,Scattered Clouds,60,2012-12-22 03:54:00
6:54 PM,70.0,62.1,76,30.03,10.0,NE,20.7,27.6,N/A,,Clear,50,2012-12-22 04:54:00
7:54 PM,70.0,60.1,71,30.06,10.0,ENE,15.0,24.2,N/A,,Partly Cloudy,70,2012-12-22 05:54:00
8:54 PM,70.0,60.1,71,30.06,10.0,ENE,21.9,28.8,N/A,,Partly Cloudy,60,2012-12-22 06:54:00
9:54 PM,69.1,61.0,75,30.07,10.0,NE,12.7,23.0,N/A,,Partly Cloudy,50,2012-12-22 07:54:00
10:54 PM,68.0,62.1,81,30.07,10.0,ENE,13.8,21.9,N/A,,Clear,60,2012-12-22 08:54:00
11:54 PM,69.1,62.1,78,30.06,10.0,ENE,11.5,18.4,N/A,,Partly Cloudy,60,2012-12-22 09:54:00